Location: M�nchen Volkssternwarte
(48.1219°N, 11.6071°E)
Time: 08:47:04
(UTC+01:00)

ISS - Visible Passes

Search period start: 14 December 2018 00:00
Search period end: 24 December 2018 00:00
Orbit: 401 x 408 km, 51.6° (Epoch: 15 December)

Date Brightness Start Highest point End Pass type
(mag) Time Alt. Az. Time Alt. Az. Time Alt. Az.
14 Dec -1.2 17:14:31 10° W 17:17:11 23° SW 17:19:49 10° SSE visible
16 Dec -0.2 17:07:49 10° WSW 17:09:00 12° SW 17:10:11 10° SSW visible
22 Dec -0.5 07:04:58 10° S 07:06:46 14° SE 07:08:34 10° ESE visible
